Amsterdam, Netherlands

7:12 PM CET on December 05, 2019 (GMT +0100)
Schiphol

Weather History for EHAM - October, 2019

Change the Weather History Date:

Sunday, October 13, 2019

  Actual Average Record
Temperature  
Mean Temperature 61 °F -  
Max Temperature 70 °F 53 °F 78 °F (2018)
Min Temperature 52 °F 42 °F 37 °F (2015)
Degree Days  
Heating Degree Days 4    
Growing Degree Days 11 (Base 50)    
Moisture  
Dew Point 57 °F    
Average Humidity 89    
Maximum Humidity 100    
Minimum Humidity 66    
Precipitation  
Precipitation 0.12 in - - ()
Sea Level Pressure  
Sea Level Pressure 29.72 in    
Wind  
Wind Speed 10 mph ()    
Max Wind Speed 25 mph    
Max Gust Speed 33 mph    
Visibility 5.3 miles    
Events Rain    
Averages and records for this station are not official NWS values.
T = Trace of Precipitation, MM = Missing Value Source: Averaged Metar Reports

Daily Weather History Graph

Daily Weather History Graph

Search for Another Location

Airport or City:

Astronomy

Oct. 13, 2019 Rise Set
Actual Time 8:01 AM CEST 6:51 PM CEST
Civil Twilight 7:27 AM CEST 7:25 PM CEST
Nautical Twilight 6:48 AM CEST 8:05 PM CEST
Astronomical Twilight 6:08 AM CEST 8:44 PM CEST
Moon 7:15 PM CEST (10/13) 7:08 AM CEST (10/13)
Length of Visible Light 11h 58m
Length of Day
10h 49m
Full, 100% of the Moon is Illuminated
Oct 13
Full
Oct 13
Full
Oct 21
Last Quarter
Oct 28
New
Nov 4
First Quarter

Hourly Weather History & Observations

Time (CEST) Temp. Dew Point Humidity Pressure Visibility Wind Dir Wind Speed Gust Speed Precip Events Conditions
12:25 AM 53.6 °F 51.8 °F 94% 29.80 in 2.8 mi East 6.9 mph - N/A   Light Drizzle
12:55 AM 53.6 °F 51.8 °F 94% 29.80 in 3.1 mi ENE 5.8 mph - N/A   Light Drizzle
1:25 AM 53.6 °F 51.8 °F 94% 29.80 in 5.6 mi ENE 4.6 mph - N/A   Light Drizzle
1:55 AM 53.6 °F 51.8 °F 94% 29.80 in 5.0 mi East 8.1 mph - N/A   Mostly Cloudy
2:25 AM 53.6 °F 51.8 °F 94% 29.77 in 6.2 mi East 8.1 mph - N/A   Mostly Cloudy
3:00 AM 53 °F 52 °F 96% 29.78 in 4 mi East 6.7 mph - - Rain Drizzle
3:25 AM 53.6 °F 51.8 °F 94% 29.77 in 4.3 mi East 6.9 mph - N/A   Mostly Cloudy
3:55 AM 53.6 °F 51.8 °F 94% 29.77 in - East 5.8 mph - N/A   Overcast
4:00 AM 53 °F 52 °F 97% 29.77 in 3 mi East 4.5 mph - -   Mist
4:25 AM 53.6 °F 51.8 °F 94% 29.77 in 2.5 mi ENE 3.5 mph - N/A   Overcast
4:55 AM 53.6 °F 53.6 °F 100% 29.74 in 1.6 mi East 4.6 mph - N/A   Mostly Cloudy
5:00 AM 53 °F 53 °F 99% 29.76 in 1 mi East 4.5 mph - -   Mist
5:25 AM 53.6 °F 53.6 °F 100% 29.74 in 1.2 mi East 4.6 mph - N/A   Mostly Cloudy
5:55 AM 53.6 °F 53.6 °F 100% 29.74 in 1.2 mi East 4.6 mph - N/A   Mostly Cloudy
6:25 AM 53.6 °F 53.6 °F 100% 29.74 in 1.5 mi ESE 5.8 mph - N/A   Mostly Cloudy
6:55 AM 53.6 °F 53.6 °F 100% 29.74 in 1.6 mi SE 4.6 mph - N/A   Scattered Clouds
7:00 AM 53 °F 53 °F 100% 29.74 in 2 mi SE 4.5 mph - -   Mist
7:25 AM 53.6 °F 53.6 °F 100% 29.71 in - SE 3.5 mph - N/A   Partly Cloudy
7:55 AM 53.6 °F 53.6 °F 100% 29.71 in 2.2 mi SSE 5.8 mph - N/A   Mist
8:00 AM 54 °F 54 °F 99% 29.72 in 2 mi SSE 6.7 mph - -   Mist
8:25 AM 55.4 °F 55.4 °F 100% 29.71 in 1.7 mi SE 9.2 mph - N/A   Mist
8:55 AM 55.4 °F 55.4 °F 100% 29.71 in 2.8 mi SSE 8.1 mph - N/A   Scattered Clouds
9:00 AM 56 °F 56 °F 99% 29.73 in 3 mi SSE 8.9 mph - -   Mist
9:25 AM 59.0 °F 57.2 °F 94% 29.71 in 4.3 mi SSE 12.7 mph - N/A   Mostly Cloudy
9:55 AM 59.0 °F 59.0 °F 100% 29.71 in 6.2 mi SSE 11.5 mph - N/A   Partly Cloudy
10:25 AM 60.8 °F 59.0 °F 94% 29.71 in 6.2 mi South 11.5 mph - N/A   Partly Cloudy
10:55 AM 60.8 °F 59.0 °F 94% 29.68 in 6.2 mi South 11.5 mph - N/A Rain Light Rain
11:25 AM 60.8 °F 60.8 °F 100% 29.68 in 4.3 mi South 9.2 mph - N/A Rain Light Rain Showers
11:55 AM 62.6 °F 60.8 °F 94% 29.68 in 6.2 mi South 10.4 mph - N/A Rain Light Rain Showers
12:25 PM 64.4 °F 60.8 °F 88% 29.68 in 6.2 mi South 11.5 mph - N/A   Partly Cloudy
12:55 PM 64.4 °F 60.8 °F 88% 29.68 in 6.2 mi South 13.8 mph - N/A Rain Light Rain
1:25 PM 66.2 °F 62.6 °F 88% 29.65 in 6.2 mi South 15.0 mph - N/A Rain Light Rain
1:55 PM 66.2 °F 62.6 °F 88% 29.65 in 6.2 mi South 12.7 mph - N/A   Partly Cloudy
2:00 PM 67 °F 62 °F 81% 29.67 in 14 mi South 11.2 mph - -   Partly Cloudy
2:25 PM 69.8 °F 62.6 °F 78% 29.65 in 6.2 mi South 13.8 mph - N/A   Partly Cloudy
2:55 PM 69.8 °F 62.6 °F 78% 29.62 in 6.2 mi South 12.7 mph - N/A   Scattered Clouds
3:25 PM 69.8 °F 60.8 °F 73% 29.62 in 6.2 mi South 17.3 mph - N/A   Mostly Cloudy
3:55 PM 69.8 °F 60.8 °F 73% 29.65 in 6.2 mi SSW 18.4 mph - N/A   Mostly Cloudy
4:00 PM 69 °F 60 °F 66% 29.66 in 25 mi SSW 20.1 mph - -   Partly Cloudy
4:25 PM 68.0 °F 60.8 °F 78% 29.65 in 6.2 mi SSW 20.7 mph - N/A   Scattered Clouds
4:55 PM 68.0 °F 60.8 °F 78% 29.65 in 6.2 mi SSW 21.9 mph - N/A Rain Light Rain Showers
5:25 PM 68.0 °F 60.8 °F 78% 29.65 in 6.2 mi SSW 20.7 mph - N/A   Scattered Clouds
5:55 PM 68.0 °F 59.0 °F 73% 29.65 in 6.2 mi SSW 24.2 mph - N/A   Scattered Clouds
6:00 PM 68 °F 60 °F 67% 29.67 in 25 mi SW 22.4 mph - - Rain Rain
6:25 PM 68.0 °F 59.0 °F 73% 29.65 in 6.2 mi SW 20.7 mph - N/A   Partly Cloudy
6:55 PM 64.4 °F 59.0 °F 83% 29.68 in 2.2 mi WSW 21.9 mph 33.4 mph N/A Rain Rain Showers
7:00 PM 63 °F 59 °F 84% 29.70 in 4 mi WSW 24.6 mph - - Rain Heavy Rain
7:25 PM 62.6 °F 59.0 °F 88% 29.68 in 6.2 mi SW 19.6 mph - N/A Rain Light Rain Showers
7:55 PM 60.8 °F 57.2 °F 88% 29.68 in 6.2 mi SW 19.6 mph - N/A Rain Light Rain Showers
8:00 PM 61 °F 57 °F 82% 29.71 in 9 mi SW 20.1 mph - - Rain Rain
8:25 PM 60.8 °F 55.4 °F 82% 29.71 in 6.2 mi SW 18.4 mph - N/A   Partly Cloudy
8:55 PM 60.8 °F 57.2 °F 88% 29.74 in 6.2 mi SW 18.4 mph - N/A Rain Light Rain Showers
9:00 PM 60 °F 56 °F 83% 29.75 in 14 mi SW 20.1 mph - - Rain Rain
9:25 PM 60.8 °F 57.2 °F 88% 29.74 in 6.2 mi SW 18.4 mph - N/A Rain Light Rain
9:55 PM 60.8 °F 57.2 °F 88% 29.74 in 6.2 mi SW 18.4 mph - N/A Rain Light Rain
10:00 PM 60 °F 56 °F 82% 29.77 in 13 mi SW 17.9 mph - - Rain Light Rain Showers
10:25 PM 59.0 °F 55.4 °F 88% 29.77 in 6.2 mi SW 16.1 mph - N/A   Partly Cloudy
10:55 PM 59.0 °F 55.4 °F 88% 29.77 in 6.2 mi SW 16.1 mph - N/A   Scattered Clouds
11:00 PM 59 °F 55 °F 84% 29.80 in 12 mi SW 17.9 mph - - Rain Rain
11:25 PM 59.0 °F 55.4 °F 88% 29.80 in 6.2 mi SW 13.8 mph - N/A   Partly Cloudy
11:55 PM 59.0 °F 53.6 °F 82% 29.80 in 6.2 mi WSW 12.7 mph - N/A   Partly Cloudy